Date,TemperatureHighF,TemperatureAvgF,TemperatureLowF,DewpointHighF,DewpointAvgF,DewpointLowF,HumidityHigh,HumidityAvg,HumidityLow,PressureMaxIn,PressureMinIn,WindSpeedMaxMPH,WindSpeedAvgMPH,GustSpeedMaxMPH,PrecipitationSumIn
2013-1-1,36.8,33.0,23.7,29.3,24.6,14.7,77,71,61,29.98,29.81,11,2,11,0.00
2013-1-2,31.9,25.1,19.9,18.7,15.2,11.7,72,66,54,30.13,29.95,12,2,12,0.00
2013-1-3,37.7,27.4,19.9,21.5,17.7,14.5,82,67,51,30.14,30.01,8,1,8,0.00
2013-1-4,42.0,32.3,27.6,26.8,22.6,19.2,77,67,53,30.03,29.91,13,3,13,0.00
2013-1-5,52.5,33.5,26.0,32.1,22.8,19.0,81,65,45,30.24,29.97,12,2,12,0.00
2013-1-6,50.1,36.8,28.9,33.3,27.9,23.5,83,71,51,30.18,29.94,10,1,10,0.00
2013-1-7,50.7,36.5,24.7,32.2,26.7,20.0,84,69,46,30.35,30.02,10,2,10,0.00
2013-1-8,52.5,34.2,22.4,36.3,26.7,18.5,91,75,50,30.36,30.29,8,1,8,0.00
2013-1-9,43.3,31.6,24.4,36.7,27.7,21.8,92,86,72,30.34,30.10,9,1,9,0.00
2013-1-10,55.9,40.2,32.5,37.0,28.0,25.4,78,63,45,30.50,30.19,10,2,10,0.00
2013-1-11,40.8,36.1,30.7,37.9,31.3,26.0,94,83,73,30.49,30.06,6,1,6,0.07
2013-1-12,48.1,42.1,37.9,45.3,40.5,36.5,97,94,89,30.13,30.05,3,0,3,0.01
2013-1-13,57.9,45.1,40.6,53.1,43.9,39.8,100,96,81,30.11,29.97,3,0,3,0.00
2013-1-14,55.9,47.1,36.4,52.1,42.4,30.6,100,85,60,30.26,29.85,10,2,10,0.08
2013-1-15,37.7,35.4,33.6,32.8,30.7,28.4,91,83,78,30.31,30.16,5,1,5,0.10
2013-1-16,34.5,32.3,30.7,33.0,30.3,28.5,96,92,83,30.17,29.77,6,1,6,0.00
2013-1-17,44.7,36.2,33.0,33.2,29.7,25.3,95,77,61,30.05,29.86,12,2,12,0.24
2013-1-18,36.4,27.4,22.9,25.7,16.2,9.8,78,63,43,30.40,29.95,12,2,12,0.00
2013-1-19,46.9,34.8,23.7,31.9,24.4,14.1,77,66,52,30.32,29.87,8,1,9,0.16
2013-1-20,53.4,37.8,25.5,35.9,24.7,12.4,87,61,35,29.99,29.66,16,2,16,0.01
2013-1-21,29.2,25.4,22.4,19.3,14.4,10.3,78,63,55,30.03,29.78,9,1,9,0.00
2013-1-22,22.4,16.1,9.6,12.3,4.8,-3.0,78,61,42,30.13,29.77,16,4,16,0.00
2013-1-23,22.9,12.1,7.3,4.8,0.6,-3.2,76,60,42,30.17,30.08,11,2,11,0.00
2013-1-24,26.5,14.6,6.9,10.3,3.6,0.4,83,63,41,30.34,30.05,14,2,14,0.00
2013-1-25,25.5,15.8,10.0,11.5,6.6,-0.2,83,67,51,30.34,29.99,10,1,10,0.00
2013-1-26,30.9,18.7,11.2,17.5,10.0,6.2,88,70,46,30.31,29.97,11,2,11,0.00
2013-1-27,41.5,24.2,14.8,22.2,13.4,8.2,80,65,41,30.46,30.31,11,2,11,0.00
2013-1-28,33.9,28.3,20.1,31.8,23.7,12.7,93,83,72,30.43,29.95,4,0,4,0.00
2013-1-29,56.2,41.4,33.4,48.5,38.0,31.3,96,88,71,30.11,29.96,7,1,7,0.01
2013-1-30,61.1,47.2,38.6,59.0,46.1,37.2,100,96,93,30.03,29.30,9,1,9,0.35
2013-1-31,60.4,41.2,25.8,59.5,31.2,11.8,100,69,47,29.73,29.02,25,6,25,1.05
2013-2-1,30.5,24.7,19.9,16.7,13.9,8.5,79,64,43,30.16,29.72,15,3,15,0.00
2013-2-2,30.0,21.1,15.6,18.1,12.1,7.7,84,68,47,30.22,29.98,10,2,10,0.00
2013-2-3,34.5,23.9,17.5,24.7,18.5,13.9,89,80,63,29.98,29.74,7,1,7,0.00
2013-2-4,32.1,24.0,19.2,19.6,13.5,10.7,89,65,47,29.91,29.75,14,3,14,0.00
2013-2-5,31.4,27.8,24.6,25.8,22.2,16.1,89,79,68,29.91,29.83,5,1,5,0.00
2013-2-6,40.8,30.9,24.2,28.4,22.5,13.1,92,72,51,30.29,29.86,11,2,11,0.00
2013-2-7,35.0,26.4,18.4,20.5,15.7,11.8,77,64,52,30.43,30.26,7,1,7,0.00
2013-2-8,33.7,30.5,27.4,30.8,26.9,19.4,94,87,69,30.26,29.64,11,4,11,0.00
2013-2-9,36.1,26.0,16.8,26.9,17.6,8.1,94,72,46,30.29,29.71,16,4,16,0.00
2013-2-10,51.0,27.9,15.2,29.7,17.0,7.9,84,66,40,30.40,30.25,7,2,7,0.00
2013-2-11,40.8,35.6,28.3,40.0,32.5,20.8,97,88,73,30.25,29.62,7,1,7,0.00
2013-2-12,43.3,37.4,31.8,36.2,28.2,24.8,97,69,58,29.93,29.68,16,4,16,0.00
2013-2-13,53.9,35.2,23.5,36.3,27.1,20.4,90,74,49,29.90,29.64,4,1,4,0.00
2013-2-14,53.4,37.3,29.1,36.2,29.9,25.1,92,77,48,29.95,29.66,6,1,6,0.00
2013-2-15,56.4,40.2,28.7,37.9,30.5,24.7,90,70,43,29.95,29.87,13,2,13,0.00
2013-2-16,39.7,32.9,26.5,32.3,25.3,14.1,91,74,59,29.93,29.71,9,2,9,0.00
2013-2-17,32.5,23.4,14.5,14.5,8.4,1.7,66,53,39,29.94,29.64,19,6,19,0.00
2013-2-18,38.8,24.0,13.0,16.6,9.7,2.4,69,55,36,30.18,29.93,16,4,16,0.00
2013-2-19,41.8,33.0,22.2,37.8,26.7,15.5,93,78,59,30.12,29.64,17,2,17,0.00
2013-2-20,33.6,27.0,21.7,25.6,15.7,10.9,73,62,50,29.92,29.67,18,6,18,0.00
2013-2-21,35.4,25.4,19.7,19.0,14.3,11.4,75,63,49,30.24,29.91,19,5,19,0.00
2013-2-22,38.6,29.6,19.5,29.3,21.6,12.8,81,72,59,30.33,30.19,7,2,7,0.00
2013-2-23,40.0,36.4,33.6,38.1,34.0,29.1,95,91,81,30.21,29.77,10,2,10,0.00
2013-2-24,47.1,36.0,29.6,40.6,30.8,22.4,97,82,63,29.93,29.72,14,3,14,0.00
2013-2-25,44.9,35.3,29.2,33.1,28.0,22.6,85,75,61,30.18,29.93,9,2,9,0.00
2013-2-26,43.3,34.8,26.5,35.9,30.3,23.9,94,84,71,30.23,29.83,16,4,16,0.00
2013-2-27,48.1,40.4,33.6,46.4,38.3,32.0,99,93,84,29.84,29.47,19,5,19,0.00
2013-2-28,50.1,40.1,34.8,39.8,33.7,28.3,95,79,60,29.58,29.51,8,2,8,0.00
2013-3-1,47.2,36.4,31.9,33.9,29.4,25.6,89,76,58,29.75,29.57,10,3,10,0.00
2013-3-2,38.4,32.0,27.8,27.4,24.4,21.2,83,73,63,29.74,29.66,10,3,10,0.00
2013-3-3,40.8,29.7,24.7,25.0,20.2,15.9,78,68,52,29.72,29.63,13,4,13,0.00
2013-3-4,42.6,31.6,24.2,25.3,20.5,15.7,77,64,48,29.87,29.72,13,5,13,0.00
2013-3-5,54.8,37.8,28.2,34.5,26.2,21.3,77,64,44,29.97,29.86,12,3,12,0.00
2013-3-6,39.9,37.1,35.4,35.5,30.9,26.9,87,78,69,29.92,29.81,19,6,19,0.00
2013-3-7,41.3,35.4,31.0,32.7,29.0,25.7,93,78,64,30.04,29.90,15,4,15,0.00
2013-3-8,44.7,33.6,28.3,38.4,29.4,26.2,94,85,71,30.17,29.96,12,3,12,0.00
2013-3-9,68.3,44.5,29.6,37.0,28.9,23.3,78,58,29,30.27,30.13,11,3,11,0.00
2013-3-10,63.6,40.9,26.4,40.7,30.9,22.7,87,69,42,30.32,30.21,8,2,8,0.00
2013-3-11,56.4,44.6,36.3,46.8,39.6,31.1,93,83,59,30.26,30.03,10,2,10,0.00
2013-3-12,56.4,49.9,40.0,54.7,47.6,36.1,97,92,83,30.03,29.63,11,3,11,1.50
2013-3-13,52.5,40.6,33.7,36.4,31.1,25.1,91,71,43,29.84,29.74,12,3,12,0.00
2013-3-14,42.7,32.3,25.8,26.5,15.6,9.7,72,51,33,29.90,29.79,19,6,19,0.00
2013-3-15,43.3,34.9,26.0,31.4,21.9,13.2,70,59,50,29.92,29.66,16,4,16,0.00
2013-3-16,38.2,33.5,30.3,29.9,26.2,22.7,87,74,61,29.86,29.72,9,1,9,0.04
2013-3-17,37.5,31.4,25.5,28.3,21.4,16.3,89,67,51,30.23,29.85,12,2,12,0.04
2013-3-18,35.2,28.7,23.1,28.8,19.8,13.5,92,70,56,30.32,29.93,13,4,13,0.00
2013-3-19,50.5,36.5,30.9,41.2,32.2,20.5,95,85,59,29.93,29.64,14,4,14,0.23
2013-3-20,44.4,35.0,28.7,25.1,21.8,19.2,71,59,42,29.82,29.72,12,3,15,0.00
2013-3-21,44.0,32.7,26.7,26.1,19.8,13.9,81,60,40,29.78,29.58,9,3,9,0.00
2013-3-22,41.5,31.8,25.1,24.3,19.5,13.0,75,61,47,29.82,29.66,13,4,13,0.00
2013-3-23,46.3,36.3,30.5,25.3,21.9,19.4,69,56,42,29.89,29.77,16,4,16,0.00
2013-3-24,51.7,39.2,28.2,33.9,24.3,19.3,72,56,41,29.89,29.65,9,2,9,0.00
2013-3-25,40.8,37.5,35.0,33.0,28.7,24.1,85,71,57,29.65,29.42,12,2,12,0.02
2013-3-26,54.3,41.5,34.1,35.4,30.3,27.0,84,66,43,29.82,29.55,11,2,11,0.00
2013-3-27,51.9,40.7,31.0,33.5,28.5,24.0,78,63,39,29.94,29.82,12,3,12,0.00
2013-3-28,52.8,41.3,33.7,36.2,31.0,28.6,84,67,49,30.06,29.91,10,3,10,0.00
2013-3-29,57.9,43.8,35.4,35.4,30.4,27.0,74,60,39,30.09,30.02,10,3,10,0.00
2013-3-30,64.3,44.8,29.4,35.8,28.4,22.6,88,57,26,30.12,30.01,9,2,9,0.00
2013-3-31,58.8,43.3,29.2,41.9,32.9,23.1,88,68,43,30.07,29.64,13,3,13,0.20
2013-4-1,58.4,46.0,33.4,46.1,36.3,15.7,92,71,40,29.85,29.59,15,3,15,0.03
2013-4-2,44.2,34.9,28.5,20.5,16.3,13.3,63,47,35,30.02,29.85,16,4,16,0.00
2013-4-3,49.0,36.2,28.9,21.4,15.8,12.7,59,44,30,30.24,30.01,15,5,15,0.00
2013-4-4,59.1,41.8,29.2,31.1,22.6,15.5,62,48,32,30.31,30.01,14,3,14,0.00
2013-4-5,68.1,48.3,35.5,35.3,27.1,20.6,70,46,28,30.01,29.69,12,3,12,0.00
2013-4-6,58.9,42.6,30.7,25.2,19.9,16.8,63,43,24,30.23,29.96,10,3,10,0.00
2013-4-7,66.0,49.0,36.1,42.7,33.9,21.2,75,57,37,30.23,29.92,14,3,14,0.00
2013-4-8,80.7,61.7,43.1,49.9,44.6,38.4,85,57,30,30.03,29.92,9,2,9,0.00
2013-4-9,89.4,68.5,50.5,53.6,47.2,43.1,87,51,23,29.95,29.87,17,3,17,0.00
2013-4-10,83.4,64.9,53.2,60.1,52.1,42.8,92,65,44,29.92,29.76,11,2,11,0.57
2013-4-11,63.4,56.8,45.6,59.8,51.0,41.9,96,82,57,29.97,29.75,11,3,11,0.01
2013-4-12,47.2,41.5,38.8,43.5,39.1,36.8,95,91,79,29.96,29.66,22,6,22,0.43
2013-4-13,60.9,47.6,37.7,43.9,38.7,35.1,96,74,46,29.92,29.70,11,2,11,0.00
2013-4-14,64.7,51.4,42.9,40.3,34.5,30.3,77,54,32,30.15,29.91,12,2,12,0.00
2013-4-15,69.0,51.4,41.3,41.6,33.8,28.8,71,52,36,30.31,30.15,11,3,11,0.00
2013-4-16,70.1,58.2,46.2,57.1,48.8,37.5,82,71,58,30.30,30.05,13,3,13,0.00
2013-4-17,78.7,62.6,50.7,57.2,45.0,38.3,88,57,26,30.24,30.06,8,2,8,0.00
2013-4-18,60.4,51.6,44.0,49.6,43.8,37.2,93,75,51,30.27,30.03,14,3,14,0.00
2013-4-19,78.7,64.4,51.6,66.8,59.8,49.4,97,86,63,30.03,29.58,13,3,13,0.83
2013-4-20,61.1,50.4,41.7,51.8,35.8,24.4,94,60,36,30.26,29.65,16,4,16,0.14
2013-4-21,64.5,46.0,33.0,36.1,26.6,21.3,66,48,31,30.55,30.26,10,3,10,0.00
2013-4-22,62.4,46.2,33.7,39.9,32.5,26.3,80,60,43,30.58,30.41,15,4,15,0.00
2013-4-23,51.0,44.2,37.5,42.0,36.6,31.0,84,75,71,30.41,30.06,8,3,10,0.00
2013-4-24,78.4,56.0,35.0,56.8,46.2,32.8,94,72,46,30.07,29.75,10,2,10,0.00
2013-4-25,71.2,55.5,41.7,55.6,34.9,28.3,76,49,23,30.21,29.80,16,3,16,0.00
2013-4-26,72.3,54.7,39.0,39.4,34.1,28.9,78,50,23,30.36,30.21,9,2,9,0.00
2013-4-27,78.4,57.8,36.3,43.4,36.0,29.9,79,48,25,30.37,30.21,9,2,9,0.00
2013-4-28,74.2,57.8,39.3,46.0,39.4,33.6,81,53,35,30.25,30.12,8,2,8,0.00
2013-4-29,60.6,52.6,50.3,49.4,46.7,38.4,93,81,47,30.18,30.12,9,2,9,0.01
2013-4-30,74.6,57.2,45.6,52.0,43.3,29.9,94,65,29,30.28,30.14,12,2,12,0.00
2013-5-1,75.7,55.6,37.0,47.8,38.8,31.0,81,56,26,30.42,30.28,11,2,11,0.00
2013-5-2,82.3,60.0,39.7,49.3,43.4,36.4,90,59,30,30.41,30.27,9,1,9,0.00
2013-5-3,72.1,58.4,46.5,48.0,40.5,36.1,84,53,30,30.39,30.28,13,3,13,0.00
2013-5-4,77.3,57.5,41.7,48.8,43.0,37.7,89,62,31,30.31,30.15,10,2,10,0.00
2013-5-5,72.3,53.9,38.2,46.2,41.5,34.6,89,66,37,30.23,30.14,10,2,10,0.00
2013-5-6,73.2,56.2,40.4,56.3,47.4,36.3,88,74,51,30.20,30.09,7,1,7,0.00
2013-5-7,77.5,62.3,45.6,59.8,52.8,43.0,93,73,51,30.12,30.03,10,2,10,0.00
2013-5-8,68.5,61.6,54.3,62.5,57.9,50.6,97,88,72,30.05,29.91,10,3,10,1.38
2013-5-9,71.0,59.1,52.1,60.2,54.7,49.8,96,86,65,29.95,29.85,8,1,8,0.18
2013-5-10,81.1,67.1,51.7,62.5,57.5,50.3,97,74,46,29.96,29.86,6,1,6,0.00
2013-5-11,73.2,65.4,60.0,65.3,61.6,57.9,96,88,72,29.87,29.67,3,0,5,0.71
2013-5-12,66.5,57.9,46.9,58.0,42.5,28.6,94,60,32,29.89,29.63,13,3,13,0.02
2013-5-13,51.6,46.5,40.6,35.1,31.1,28.3,73,55,44,30.06,29.88,10,2,10,0.00
2013-5-14,61.8,48.3,38.2,35.3,31.8,25.9,77,56,31,30.08,29.96,9,1,9,0.01
2013-5-15,73.2,56.7,39.1,60.9,47.2,32.1,84,71,58,30.01,29.64,7,1,7,0.01
2013-5-16,83.8,68.0,51.9,60.9,54.8,48.3,96,66,33,29.82,29.68,7,1,7,0.00
2013-5-17,75.5,61.8,51.9,49.5,44.4,41.3,76,54,33,30.16,29.82,9,1,9,0.00
2013-5-18,67.8,57.2,47.6,57.9,49.7,42.1,86,76,55,30.24,30.16,5,0,5,0.01
2013-5-19,63.4,57.5,54.4,58.2,54.7,52.1,98,90,81,30.25,30.11,8,2,8,0.24
2013-5-20,82.3,67.9,56.2,68.8,62.5,54.9,100,84,63,30.12,29.92,7,0,7,0.01
2013-5-21,89.4,74.5,58.9,73.8,67.0,57.3,100,79,57,29.94,29.80,5,0,5,0.00
2013-5-22,87.9,73.9,63.1,74.5,68.0,60.4,97,82,60,29.88,29.78,8,1,8,0.00
2013-5-23,78.9,70.6,63.3,72.6,67.1,60.6,100,89,74,29.85,29.70,8,0,8,1.46
2013-5-24,69.7,52.2,41.8,67.2,50.1,40.4,98,93,83,29.92,29.64,12,2,12,1.10
2013-5-25,53.0,47.0,41.8,44.1,41.4,37.9,97,82,61,29.96,29.85,15,3,15,0.19
2013-5-26,69.0,54.3,44.5,43.5,39.4,35.9,81,59,35,30.16,29.92,15,3,15,0.02
2013-5-27,74.6,57.5,39.1,52.8,43.0,36.1,90,62,37,30.19,30.07,10,1,10,0.00
2013-5-28,61.1,54.2,46.9,54.1,50.5,43.2,96,87,75,30.17,30.07,5,1,5,0.68
2013-5-29,90.3,69.1,55.3,73.0,63.5,54.1,99,84,53,30.08,29.96,10,0,10,0.00
2013-5-30,95.5,78.7,63.6,70.7,66.7,61.8,96,70,40,30.10,30.03,8,1,8,0.00
2013-5-31,93.3,79.0,62.7,74.2,66.6,60.8,95,69,41,30.09,29.96,3,1,3,0.00
2013-6-1,93.7,78.7,63.3,73.7,68.1,60.7,95,71,49,29.98,29.86,7,1,7,0.00
2013-6-2,89.4,79.1,68.7,73.4,69.7,65.2,94,74,57,29.87,29.74,6,1,6,0.13
2013-6-3,81.8,72.4,63.3,71.0,64.1,46.5,98,76,52,29.86,29.76,8,1,8,0.00
2013-6-4,81.1,64.2,52.3,52.7,47.5,45.0,77,56,31,30.08,29.86,9,2,9,0.00
2013-6-5,81.3,63.5,47.6,54.4,48.5,40.3,79,59,38,30.16,30.05,8,1,8,0.00
2013-6-6,68.1,59.7,50.7,60.9,53.6,46.7,94,81,58,30.09,29.94,10,2,10,0.00
2013-6-7,65.1,60.4,57.9,62.2,58.5,56.2,98,94,88,29.94,29.59,10,3,10,0.12
2013-6-8,81.4,66.5,55.3,66.5,61.1,54.1,99,84,59,30.01,29.57,10,1,10,0.00
2013-6-9,83.2,69.4,55.9,65.6,60.5,54.5,96,75,49,30.12,30.01,6,0,6,0.26
2013-6-10,69.9,63.8,61.3,65.4,61.3,58.0,97,92,83,30.11,29.77,11,2,11,0.03
2013-6-11,79.5,69.6,61.6,68.6,64.4,59.3,100,84,66,29.77,29.59,13,2,13,0.00
2013-6-12,83.8,68.9,59.3,61.5,57.6,53.4,86,68,44,29.81,29.67,11,2,11,0.00
2013-6-13,62.2,59.1,54.6,59.6,56.8,52.9,99,92,83,29.80,29.41,10,2,10,0.00
2013-6-14,73.0,59.2,51.4,61.4,54.9,49.6,96,86,64,29.86,29.51,7,1,7,0.00
2013-6-15,83.6,67.4,53.4,61.5,56.9,51.8,97,73,38,29.97,29.85,7,1,7,0.88
2013-6-16,84.0,68.5,53.2,69.0,59.6,50.9,94,74,52,29.95,29.73,12,1,12,0.00
2013-6-17,89.9,75.3,61.6,69.9,64.8,59.2,95,72,40,29.87,29.79,6,1,6,0.01
2013-6-18,84.3,70.0,59.8,72.1,63.9,57.3,93,82,59,29.86,29.76,7,1,7,0.69
2013-6-19,83.1,65.7,55.0,62.4,55.4,51.7,95,72,44,30.11,29.84,9,1,9,0.04
2013-6-20,85.8,66.7,50.3,63.8,57.1,48.0,93,73,45,30.21,30.10,5,0,5,0.00
2013-6-21,86.1,71.2,56.4,65.3,59.8,51.9,89,69,46,30.24,30.17,6,0,6,0.01
2013-6-22,88.1,72.5,55.3,69.8,62.9,52.4,92,73,53,30.21,30.07,5,0,5,0.00
2013-6-23,89.0,78.1,63.8,73.4,68.3,61.3,93,73,57,30.13,30.00,5,0,5,0.02
2013-6-24,93.9,80.3,69.6,75.1,70.7,65.2,95,74,48,30.03,29.90,6,0,7,0.06
2013-6-25,90.6,79.1,65.4,76.1,70.1,64.1,98,75,54,29.96,29.76,8,1,8,0.07
2013-6-26,86.5,78.0,68.5,74.1,69.6,64.5,88,76,60,29.81,29.74,7,1,7,0.00
2013-6-27,89.9,78.4,66.0,75.1,70.3,63.9,97,77,57,29.78,29.47,11,1,11,1.22
2013-6-28,86.1,77.4,69.9,72.6,69.9,66.6,97,79,61,29.50,29.42,6,0,6,0.02
2013-6-29,90.4,75.7,65.8,71.3,67.2,63.0,96,76,50,29.66,29.44,4,0,4,0.03
2013-6-30,87.6,76.7,63.1,76.2,69.9,61.0,96,80,67,29.86,29.65,7,0,7,0.00
2013-7-1,80.4,75.8,69.9,74.8,71.9,67.4,98,88,78,29.98,29.83,4,0,4,1.07
2013-7-2,85.2,78.4,71.4,76.7,73.3,69.8,98,85,73,30.12,29.97,3,0,3,0.00
2013-7-3,88.5,78.5,69.9,76.9,72.5,67.6,96,82,66,30.18,30.10,3,0,3,0.00
2013-7-4,93.3,82.4,72.3,77.0,74.2,69.9,97,77,58,30.19,30.09,6,0,6,0.00
2013-7-5,96.0,83.4,71.2,76.8,73.6,68.4,96,73,51,30.16,30.03,7,0,7,0.00
2013-7-6,97.1,84.5,72.8,77.6,74.3,69.7,94,73,50,30.09,29.97,8,1,8,0.00
2013-7-7,80.5,76.7,72.4,75.2,72.6,69.9,96,87,82,30.01,29.98,1,0,1,0.00
2013-7-8,80.0,77.0,74.2,70.0,68.4,67.0,78,74,71,29.99,29.99,1,0,1,0.00
2013-7-9,88.3,77.7,66.7,74.0,70.1,64.6,93,78,61,30.02,29.94,2,0,2,0.26
2013-7-10,91.5,78.4,68.5,76.4,72.6,67.5,97,83,59,29.96,29.76,5,0,5,0.00
2013-7-11,87.0,80.2,75.0,74.9,70.9,65.5,89,74,57,29.88,29.75,2,0,2,0.02
2013-7-12,80.0,73.6,67.2,71.0,66.7,61.8,91,79,69,30.03,29.87,8,1,8,0.27
2013-7-13,84.0,73.5,64.9,76.4,69.8,63.4,100,89,76,30.22,30.03,8,1,8,0.26
2013-7-14,94.6,83.9,72.8,76.5,74.6,70.9,94,75,54,30.28,30.18,5,0,5,0.00
2013-7-15,96.7,85.6,71.2,78.5,74.7,68.7,93,71,52,30.20,30.10,4,1,4,0.01
2013-7-16,95.5,84.9,70.6,77.0,72.6,67.2,91,68,49,30.16,30.09,3,0,3,0.00
2013-7-17,96.0,84.6,70.1,77.7,73.3,67.7,93,70,47,30.15,30.02,3,0,3,0.00
2013-7-18,98.0,87.3,74.6,79.9,75.1,70.5,89,68,48,30.02,29.91,3,1,3,0.00
2013-7-19,96.0,87.7,75.0,79.9,76.4,71.2,88,70,55,29.92,29.75,2,0,2,0.00
2013-7-20,93.1,84.6,75.0,76.5,72.9,69.4,85,68,50,29.80,29.69,5,1,5,0.00
2013-7-21,91.0,80.8,70.5,71.9,69.4,67.0,91,70,49,29.90,29.79,2,0,2,0.05
2013-7-22,88.6,78.3,67.4,75.6,71.3,64.3,91,79,64,29.91,29.75,8,1,8,0.35
2013-7-23,87.7,78.5,71.2,76.6,72.9,70.0,98,83,66,29.74,29.52,3,0,3,0.09
2013-7-24,80.4,73.5,64.2,70.4,64.3,54.4,94,74,51,29.89,29.57,5,1,5,0.00
2013-7-25,72.4,65.5,60.0,62.5,56.3,50.9,81,72,65,29.98,29.88,3,0,3,0.07
2013-7-26,80.4,69.9,62.5,65.6,61.7,58.3,89,76,58,29.99,29.94,4,1,4,0.00
2013-7-27,83.8,71.0,56.8,68.1,62.8,55.1,94,76,53,29.99,29.88,5,0,5,0.02
2013-7-28,75.7,70.5,63.6,71.0,66.5,60.6,98,87,74,29.92,29.85,0,0,0,1.43
2013-7-29,82.5,72.9,62.5,67.5,63.9,56.8,97,75,44,30.05,29.90,5,1,5,0.06
2013-7-30,80.7,68.8,56.2,64.9,59.9,54.2,94,75,51,30.11,30.04,4,0,4,0.00
2013-7-31,82.7,70.0,56.1,67.0,61.6,54.1,95,76,53,30.09,29.97,4,0,4,0.00
2013-8-1,73.9,66.8,62.7,69.1,64.2,59.7,99,92,84,29.97,29.76,4,0,4,0.59
2013-8-2,83.6,73.2,60.6,68.8,65.0,59.5,98,77,53,29.85,29.73,7,0,7,0.04
2013-8-3,79.1,69.4,63.1,69.4,64.0,58.6,95,83,69,29.85,29.77,5,0,5,0.25
2013-8-4,78.0,68.7,58.2,63.8,59.0,52.0,96,73,54,29.91,29.80,8,1,8,0.00
2013-8-5,73.3,65.8,54.1,61.4,54.4,49.5,90,68,49,30.00,29.90,7,1,7,0.06
2013-8-6,81.3,68.1,52.3,65.1,58.2,49.7,92,73,47,30.04,29.96,4,0,4,0.00
2013-8-7,77.8,70.3,63.1,70.7,65.7,60.0,93,86,74,30.05,29.97,6,0,6,0.00
2013-8-8,86.5,75.5,67.8,76.6,70.9,66.2,98,86,71,29.98,29.90,12,0,12,0.00
2013-8-9,88.1,78.5,70.8,77.2,73.7,69.0,99,86,69,29.93,29.73,6,0,6,0.00
2013-8-10,85.4,74.4,63.1,72.1,66.5,59.8,98,77,52,29.99,29.80,8,1,8,0.01
2013-8-11,77.5,68.6,56.4,68.0,60.6,54.4,94,77,54,30.05,29.95,6,0,6,0.02
2013-8-12,83.6,72.6,64.7,69.6,65.3,60.3,99,79,50,29.96,29.85,3,0,3,0.66
2013-8-13,81.1,71.5,63.4,72.3,67.0,61.3,100,86,73,29.86,29.62,7,0,7,0.05
2013-8-14,71.9,64.4,55.9,66.5,54.3,49.6,84,70,58,29.98,29.70,11,2,11,0.01
2013-8-15,73.2,62.3,50.5,60.1,53.7,48.2,93,75,53,30.06,29.97,6,1,6,0.02
2013-8-16,80.2,65.2,50.5,63.4,56.0,48.5,93,74,45,30.12,30.04,5,0,5,0.00
2013-8-17,80.5,66.1,53.0,66.8,58.9,50.9,94,79,52,30.19,30.12,2,0,2,0.02
2013-8-18,77.7,68.3,59.5,66.6,62.0,57.0,94,81,63,30.18,30.05,2,0,2,0.04
2013-8-19,75.9,67.7,59.7,66.4,62.9,58.5,97,85,71,30.05,29.97,3,0,3,0.05
2013-8-20,87.2,74.6,60.9,71.7,66.3,59.1,96,77,54,30.06,29.98,4,0,4,0.00
2013-8-21,87.6,75.0,60.7,71.1,65.6,58.9,96,75,49,30.10,29.99,4,0,4,0.03
2013-8-22,80.7,72.8,66.0,74.8,68.7,63.4,97,87,76,29.99,29.81,2,0,2,3.19
2013-8-23,80.5,73.7,65.6,68.8,63.9,59.0,91,73,49,30.03,29.82,5,1,5,0.05
2013-8-24,80.7,66.9,54.8,60.5,55.6,51.6,91,70,41,30.27,30.03,5,1,5,0.00
2013-8-25,80.4,65.9,50.8,62.3,56.6,48.8,94,74,48,30.31,30.15,4,0,4,0.02
2013-8-26,80.4,70.5,62.7,71.8,63.9,56.8,84,79,74,30.15,29.84,2,0,2,0.27
2013-8-27,87.6,76.6,68.5,74.0,69.2,66.5,96,79,57,29.84,29.75,4,1,4,0.13
2013-8-28,84.0,74.2,64.3,74.2,69.5,62.6,98,86,72,29.84,29.78,2,0,2,0.36
2013-8-29,84.0,74.7,66.0,71.7,69.1,64.9,99,83,65,29.95,29.82,2,0,2,0.13
2013-8-30,83.8,74.3,66.5,73.2,68.6,64.3,97,83,68,29.95,29.79,3,0,3,0.03
2013-8-31,86.7,78.1,69.7,76.6,72.4,67.4,97,83,69,29.80,29.72,3,0,3,0.00
2013-9-1,86.5,78.6,71.4,76.1,72.9,69.7,96,83,69,29.78,29.72,2,0,2,0.02
2013-9-2,80.7,75.1,68.7,74.7,71.1,66.6,97,87,78,29.74,29.64,4,0,4,0.15
2013-9-3,80.5,71.3,62.7,70.3,64.3,58.8,98,79,57,29.82,29.66,4,1,4,1.19
2013-9-4,79.3,68.0,57.9,65.1,60.0,56.1,94,77,56,29.92,29.81,4,1,4,0.02
2013-9-5,72.8,66.1,59.5,62.3,56.0,48.6,91,72,44,30.07,29.85,5,1,5,0.03
2013-9-6,66.1,56.5,48.7,51.0,46.6,44.0,86,71,49,30.17,30.06,3,0,3,0.00
2013-9-7,73.2,60.2,44.7,61.3,51.5,42.5,93,75,51,30.05,29.82,4,0,4,0.00
2013-9-8,79.8,68.0,58.8,66.4,57.4,47.6,89,70,47,30.00,29.75,4,1,4,0.00
2013-9-9,72.4,61.0,46.3,60.6,52.4,42.9,89,74,63,30.15,30.00,4,0,4,0.03
2013-9-10,86.7,73.9,63.4,76.4,68.5,58.9,98,84,71,30.08,29.98,2,0,2,0.00
2013-9-11,93.7,82.1,71.4,79.7,74.8,69.2,96,79,62,30.04,29.91,2,0,2,0.04
2013-9-12,84.7,75.6,66.7,76.6,71.2,64.9,94,86,75,29.92,29.63,3,0,3,1.22
2013-9-13,72.4,65.6,57.0,66.3,59.8,50.3,98,82,65,29.78,29.58,5,1,5,0.13
2013-9-14,59.8,55.3,49.6,51.3,47.8,45.0,84,76,68,30.04,29.78,8,2,8,0.00
2013-9-15,69.6,55.2,42.6,55.8,48.1,40.5,94,78,55,30.12,30.00,2,0,2,0.12
2013-9-16,67.0,59.3,53.0,57.5,53.5,48.1,96,82,64,30.16,29.95,5,1,5,0.03
2013-9-17,61.5,52.6,43.5,48.1,43.5,39.0,86,72,55,30.33,30.16,6,1,6,0.02
2013-9-18,65.8,52.1,39.5,51.1,45.3,37.6,95,79,56,30.26,30.10,2,0,2,0.00
2013-9-19,70.1,55.5,42.0,55.7,48.9,40.1,95,80,55,30.10,29.99,6,1,6,0.01
2013-9-20,73.2,58.4,46.0,63.0,53.5,44.5,95,85,65,30.00,29.90,2,0,2,0.01
2013-9-21,74.6,63.8,50.8,65.7,58.6,49.1,97,84,64,29.92,29.59,4,0,4,0.69
2013-9-22,65.6,59.2,53.5,61.6,51.8,42.3,96,77,61,29.84,29.59,6,2,6,0.29
2013-9-23,59.8,52.8,46.5,47.3,43.6,41.3,82,71,61,29.95,29.83,6,1,6,0.05
2013-9-24,67.8,54.7,40.9,50.1,45.2,38.4,92,72,50,29.96,29.81,5,1,5,0.00
2013-9-25,66.5,54.4,43.1,51.7,47.0,40.6,92,77,56,29.87,29.80,4,0,4,0.01
2013-9-26,66.5,55.9,45.8,58.7,52.2,43.8,96,88,74,30.02,29.86,2,0,2,0.00
2013-9-27,67.0,56.9,47.6,56.9,52.0,46.2,95,84,68,30.18,30.02,3,0,3,0.02
2013-9-28,69.0,58.7,49.6,56.6,52.9,47.9,96,82,60,30.23,30.16,3,1,3,0.00
2013-9-29,67.2,56.6,45.4,57.6,52.0,44.0,96,85,70,30.15,29.99,2,0,2,0.01
2013-9-30,69.2,55.9,45.4,56.5,50.9,44.0,95,84,60,30.01,29.89,4,0,4,0.01
2013-10-1,76.8,62.6,48.1,65.2,56.9,46.7,96,82,65,29.93,29.83,4,0,4,0.01
2013-10-2,84.5,65.7,52.1,66.5,59.3,50.9,96,81,53,29.94,29.84,6,1,6,0.01
2013-10-3,74.4,63.8,51.9,62.5,57.6,50.5,95,81,59,30.04,29.95,2,0,2,0.02
2013-10-4,82.5,69.1,57.7,69.8,63.1,55.4,96,82,62,29.98,29.90,4,1,4,0.02
2013-10-5,82.5,71.6,61.6,70.4,65.7,59.5,93,82,66,30.01,29.94,3,0,3,0.00
2013-10-6,71.5,66.4,62.9,67.1,64.3,61.6,99,93,84,30.00,29.93,4,1,4,0.05
2013-10-7,71.4,65.6,56.2,69.6,63.0,49.5,97,91,75,29.93,29.66,5,1,5,0.24
2013-10-8,63.3,54.6,46.7,50.1,47.7,45.1,95,78,58,30.24,29.90,5,1,5,0.00
2013-10-9,58.8,51.0,43.8,48.4,45.3,41.0,90,81,68,30.29,30.20,6,1,6,0.01
2013-10-10,60.0,55.0,50.5,56.1,50.5,45.5,89,85,80,30.19,30.00,4,1,4,0.01
2013-10-11,70.1,61.2,57.1,60.4,56.6,52.9,90,85,71,30.01,29.94,7,1,7,0.00
2013-10-12,71.7,63.0,54.8,59.2,50.5,43.2,81,65,37,30.18,29.99,12,3,12,0.01
2013-10-13,65.1,56.9,48.7,53.9,50.6,45.9,90,80,66,30.29,30.18,8,3,8,0.01
2013-10-14,67.0,53.8,44.0,54.2,48.3,41.8,95,83,60,30.27,30.13,4,1,4,0.00
2013-10-15,69.4,56.4,44.7,60.2,50.6,43.0,95,82,63,30.16,30.03,6,1,6,0.01
2013-10-16,65.1,55.8,47.1,59.0,52.2,44.3,94,88,79,30.02,29.83,3,0,3,0.00
2013-10-17,76.0,65.4,58.9,63.7,60.4,57.3,97,85,64,29.82,29.59,3,1,3,0.02
2013-10-18,65.4,58.0,48.3,62.1,48.2,41.5,91,70,53,29.89,29.59,10,3,10,0.01
2013-10-19,62.2,50.5,38.6,50.9,43.9,36.4,93,79,59,29.90,29.67,2,1,2,0.04
2013-10-20,61.8,51.1,40.4,49.0,41.7,35.9,91,72,43,29.97,29.67,6,2,6,0.01
2013-10-21,66.5,48.9,35.4,45.2,39.5,33.3,94,73,44,30.04,29.88,4,1,4,0.00
2013-10-22,60.7,48.9,39.0,51.3,42.8,36.5,93,80,67,29.88,29.66,2,1,2,0.00
2013-10-23,55.2,43.3,35.2,43.8,36.6,31.9,89,77,60,29.73,29.53,7,1,7,0.00
2013-10-24,51.2,42.3,36.1,37.6,32.5,28.4,88,70,46,29.89,29.66,6,2,6,0.00
2013-10-25,52.6,41.8,35.2,35.6,31.9,29.2,84,69,47,30.11,29.89,12,2,12,0.01
2013-10-26,55.2,41.3,28.9,36.3,31.6,26.0,90,71,44,30.11,29.79,7,1,7,0.00
2013-10-27,55.9,47.4,39.3,38.9,34.0,31.8,74,60,45,30.01,29.74,7,2,7,0.00
2013-10-28,62.0,45.1,31.0,42.8,34.5,27.5,90,69,41,30.21,30.01,8,1,8,0.00
2013-10-29,56.2,45.2,35.7,40.0,34.4,29.0,80,67,49,30.31,30.21,4,0,4,0.00
2013-10-30,56.2,44.9,33.9,49.5,40.0,28.7,92,83,78,30.24,30.08,2,0,2,0.00
2013-10-31,62.0,54.6,44.7,59.0,52.3,42.8,95,92,88,30.12,29.72,2,1,2,0.01
2013-11-1,70.3,61.8,48.9,63.1,56.7,46.3,96,84,60,29.70,29.46,8,2,8,0.16
2013-11-2,69.9,53.5,45.6,53.0,45.7,38.9,95,76,54,29.69,29.54,6,1,6,0.00
2013-11-3,50.3,42.4,31.9,42.3,32.5,21.2,86,69,46,30.33,29.70,7,2,7,0.01
2013-11-4,53.7,36.5,27.6,29.8,23.0,20.4,74,59,38,30.53,30.34,4,1,4,0.00
2013-11-5,55.0,41.8,29.6,41.3,34.1,23.3,85,74,59,30.53,30.37,4,1,4,0.00
2013-11-6,57.9,50.5,41.8,48.8,44.6,38.2,90,81,68,30.38,29.97,4,1,4,0.00
2013-11-7,58.4,50.6,38.1,55.4,46.7,32.8,93,87,73,29.96,29.67,8,2,8,0.05
2013-11-8,47.4,40.2,35.4,37.5,29.9,25.4,85,67,51,30.09,29.83,11,3,11,0.00
2013-11-9,51.2,38.2,28.5,32.6,28.9,24.5,87,70,48,30.16,29.89,4,1,4,0.00
2013-11-10,57.0,47.2,38.1,39.9,34.5,28.7,80,62,47,29.92,29.72,14,5,14,0.01
2013-11-11,52.5,44.7,36.8,35.4,31.2,26.9,69,59,51,30.09,29.85,7,2,7,0.00
2013-11-12,47.2,34.5,27.1,35.5,24.9,18.1,86,68,59,30.16,29.81,11,3,11,0.01
2013-11-13,42.0,29.9,24.9,20.5,18.5,16.8,78,64,40,30.25,30.15,10,2,10,0.00
2013-11-14,52.5,39.1,28.2,26.2,21.6,19.2,73,51,34,30.13,30.04,8,2,8,0.00
2013-11-15,59.8,41.2,29.6,31.6,24.9,19.6,73,54,31,30.13,30.05,3,1,3,0.00
2013-11-16,66.7,48.1,34.3,49.6,39.1,25.9,88,72,48,30.21,30.12,2,0,2,0.02
2013-11-17,58.2,53.0,46.3,57.0,51.0,42.6,97,93,87,30.16,29.69,4,1,4,0.00
2013-11-18,64.9,56.2,46.2,58.9,42.7,30.1,97,64,38,29.69,29.51,8,3,8,0.00
2013-11-19,45.8,40.3,31.8,30.1,26.4,22.2,67,58,50,30.23,29.69,12,4,12,0.00
2013-11-20,53.2,35.0,25.6,27.2,20.5,16.1,73,58,31,30.49,30.23,6,2,6,0.00
2013-11-21,56.6,38.0,22.4,38.7,29.1,16.4,81,70,51,30.49,30.27,3,1,3,0.00
2013-11-22,54.1,48.4,43.3,49.0,44.3,37.9,92,86,81,30.27,29.82,5,1,5,0.02
2013-11-23,50.5,38.6,25.6,47.1,27.6,13.7,88,66,44,29.95,29.80,9,4,9,0.02
2013-11-24,29.6,22.2,18.4,13.6,8.0,6.0,64,54,42,30.23,29.90,10,4,10,0.00
2013-11-25,39.7,29.0,17.4,21.9,15.4,8.4,71,57,47,30.33,30.17,8,2,8,0.00
2013-11-26,39.7,33.0,30.0,38.1,24.1,16.6,94,71,56,30.19,29.64,6,1,6,0.58
2013-11-27,56.6,40.2,30.0,56.0,37.6,20.8,99,90,68,29.63,29.25,17,4,17,0.92
2013-11-28,39.0,28.6,25.1,23.1,16.9,12.9,72,62,45,30.32,29.63,18,4,18,0.00
2013-11-29,41.7,29.9,23.5,28.3,20.9,16.4,80,69,56,30.59,30.31,7,1,7,0.00
2013-11-30,36.8,28.1,17.0,24.3,19.4,11.9,83,70,57,30.60,30.23,6,1,6,0.00
2013-12-1,52.8,36.6,25.6,38.7,29.1,22.2,89,75,54,30.23,29.88,6,0,6,0.01
2013-12-2,48.3,36.9,29.6,37.3,31.1,26.2,88,80,63,29.88,29.75,2,0,2,0.00
2013-12-3,40.6,32.0,28.2,37.3,29.8,25.6,93,91,88,29.81,29.77,2,0,2,0.00
2013-12-7,27.4,27.1,26.7,18.6,18.3,17.8,69,69,69,30.48,30.47,5,2,5,0.00
2013-12-8,31.6,27.3,24.2,26.3,20.5,16.5,90,75,67,30.55,30.33,8,2,8,0.00
2013-12-9,35.7,32.6,28.9,34.4,31.0,26.3,95,94,90,30.34,29.94,9,2,9,0.01
2013-12-10,33.6,30.2,23.7,31.5,27.6,17.7,95,90,77,30.08,29.85,7,1,7,0.00
2013-12-11,35.7,25.2,20.1,22.1,18.0,15.3,84,74,54,30.27,30.08,9,1,9,0.00
2013-12-12,34.5,22.3,17.4,18.3,12.0,7.8,81,65,48,30.30,30.10,10,2,10,0.00
2013-12-13,37.2,24.6,14.3,21.0,14.5,6.3,81,66,51,30.27,30.07,16,2,16,0.01
2013-12-14,26.4,22.8,17.9,24.1,18.6,15.2,94,84,77,30.43,29.76,14,4,14,0.00
2013-12-15,37.3,30.2,24.6,33.4,26.8,21.7,96,87,75,29.79,29.51,12,2,12,0.00
2013-12-16,33.6,23.2,12.7,23.7,14.2,8.3,83,69,50,30.17,29.78,12,3,12,0.00
2013-12-17,25.5,18.8,12.1,22.7,15.3,7.9,90,86,81,30.17,29.89,5,1,5,0.00
2013-12-18,39.3,25.3,13.9,26.6,19.2,11.0,91,78,58,30.12,29.88,13,2,13,0.00
2013-12-19,51.4,30.6,16.1,34.4,23.4,12.9,90,76,50,30.13,29.98,5,1,9,0.03
2013-12-20,55.2,39.4,30.0,39.7,31.8,26.6,89,75,52,30.07,29.93,5,1,5,0.04
2013-12-21,62.0,45.6,35.4,51.1,40.0,31.7,93,81,64,29.97,29.88,6,1,6,0.05
2013-12-22,67.8,58.4,41.5,63.9,55.3,38.2,100,90,83,29.94,29.77,12,2,12,0.01
2013-12-23,61.3,50.0,35.7,58.0,47.7,30.0,98,92,79,30.12,29.89,12,2,12,0.02
2013-12-24,39.7,31.3,21.1,30.4,23.2,10.7,83,72,59,30.29,30.05,13,3,13,0.01
2013-12-25,34.1,22.6,14.8,18.3,12.1,7.7,75,64,52,30.46,30.29,12,2,12,0.00
2013-12-26,35.4,26.8,20.8,29.0,21.4,14.7,88,80,66,30.36,30.10,7,1,7,0.00
2013-12-27,40.9,29.4,21.5,28.5,23.1,18.3,90,78,56,30.29,30.20,10,1,10,0.00
2013-12-28,54.1,35.2,22.0,34.6,26.2,19.5,91,72,45,30.23,30.03,6,2,8,0.00
2013-12-29,40.6,36.1,30.3,39.3,33.2,25.9,96,89,82,30.03,29.43,9,2,9,0.01
2013-12-30,40.6,31.8,18.8,37.1,26.3,11.3,94,80,66,30.14,29.67,10,2,10,0.00
2013-12-31,30.5,22.6,16.8,23.4,14.3,9.7,80,70,59,30.21,29.99,15,2,15,0.01
2014-1-1,31.4,25.1,16.1,22.3,17.1,9.7,82,71,63,30.34,30.18,7,1,7,0.00
2014-1-2,28.2,23.1,13.4,21.6,18.3,9.9,87,82,73,30.18,29.64,10,3,10,0.00